This is the latest recevied weather packets stored in our database for station/object WC4PEM-11. If no packets are shown the sender has not sent any weather packets the latest 10 day(s).
| Time | Temp. | Humidity | Pressure | Rain* | Wind** | Luminosity | Snow |
|---|---|---|---|---|---|---|---|
| 1788021191 | 34.44° C | 56% | 1018.3 hPa | 0 mm | - | - | - |
| 1788020891 | 33.89° C | 59% | 1018.2 hPa | 0 mm | - | - | - |
| 1788020591 | 34.44° C | 57% | 1018.2 hPa | 0 mm | - | - | - |
| 1788020291 | 33.89° C | 61% | 1018.3 hPa | 0 mm | - | - | - |
| 1788019991 | 33.89° C | 60% | 1018.3 hPa | 0 mm | - | - | - |
| 1788019691 | 33.33° C | 61% | 1018.2 hPa | 0 mm | - | - | - |
| 1788019391 | 33.33° C | 62% | 1018.1 hPa | 0 mm | - | - | - |
| 1788019091 | 33.33° C | 62% | 1018.3 hPa | 0 mm | - | - | - |
| 1788018952 | 33.33° C | 60% | 1018.3 hPa | 0 mm | - | - | - |
| 1788018791 | 33.33° C | 60% | 1018.3 hPa | 0 mm | - | - | - |
| 1788018491 | 33.89° C | 60% | 1018.4 hPa | 0 mm | - | - | - |
| 1788018191 | 33.89° C | 60% | 1018.4 hPa | 0 mm | - | - | - |
| 1788017891 | 33.33° C | 58% | 1018.5 hPa | 0 mm | - | - | - |
| 1788017591 | 33.33° C | 61% | 1018.6 hPa | 0 mm | - | - | - |
| 1788017291 | 32.78° C | 60% | 1018.7 hPa | 0 mm | - | - | - |
| 1788016991 | 32.78° C | 66% | 1018.6 hPa | 0 mm | - | - | - |
| 1788016691 | 32.22° C | 67% | 1018.6 hPa | 0 mm | - | - | - |
| 1788016391 | 32.22° C | 70% | 1018.7 hPa | 0 mm | - | - | - |
| 1788016091 | 31.67° C | 70% | 1018.7 hPa | 0 mm | - | - | - |
| 1788015791 | 31.11° C | 70% | 1018.7 hPa | 0 mm | - | - | - |
| 1788015633 | 31.11° C | 72% | 1018.7 hPa | 0 mm | - | - | - |
| 1788015491 | 31.11° C | 72% | 1018.7 hPa | 0 mm | - | - | - |
| 1788015191 | 31.11° C | 73% | 1018.6 hPa | 0 mm | - | - | - |
| 1788014891 | 31.11° C | 71% | 1018.6 hPa | 0 mm | - | - | - |
| 1788014591 | 30.56° C | 73% | 1018.6 hPa | 0 mm | - | - | - |
* Rain latest hour (hover to see other rain measurements)
** Current wind speed in m/s (hover to see current wind gust speed)